Location: Newark
(36.0797°N, 3.9744°E)
Time: 16:43:13
(UTC+00:00)

Vanguard 2 Rocket - Pass Details

Date: 16 December 2019
Orbit: 554 x 3326 km, 32.9° (Epoch: 26 January)

Event Time Altitude Azimuth Distance (km) Brightness Sun altitude
Rises 16:19:05 0° 248° (WSW) 7,287 14.0 1.3°
Reaches altitude 10° 16:24:14 10° 247° (WSW) 6,152 13.4 0.4°
Maximum altitude 16:42:46 71° 168° (SSE) 2,523 9.2 -2.9°
Drops below altitude 10° 16:53:56 10° 87° (E) 3,932 9.6 -4.9°
Enters shadow 16:55:44 - 86° (E) 4,418 9.8 -5.3°
Sets 16:56:28 0° 85° (E) 4,625 - -5.4°
